Year,Month,Day,Hour,Minute,Value (Times are PST for temperature in C)
2007,07,16,00,00,18.20
2007,07,16,00,01,18.20
2007,07,16,00,02,18.20
2007,07,16,00,03,18.20
2007,07,16,00,04,18.20
2007,07,16,00,05,18.20
2007,07,16,00,06,18.20
2007,07,16,00,07,18.10
2007,07,16,00,08,18.10
2007,07,16,00,09,18.10
2007,07,16,00,10,18.10
2007,07,16,00,11,18.10
2007,07,16,00,12,18.10
2007,07,16,00,13,18.10
2007,07,16,00,14,18.10
2007,07,16,00,15,18.10
2007,07,16,00,16,18.10
2007,07,16,00,17,18.10
2007,07,16,00,18,18.10
2007,07,16,00,19,17.90
2007,07,16,00,20,17.90
2007,07,16,00,21,17.90
2007,07,16,00,22,17.90
2007,07,16,00,23,17.90
2007,07,16,00,24,17.90
2007,07,16,00,25,17.90
2007,07,16,00,26,17.90
2007,07,16,00,27,17.90
2007,07,16,00,28,17.90
2007,07,16,00,29,17.80
2007,07,16,00,30,17.80
2007,07,16,00,31,17.80
2007,07,16,00,32,17.80
2007,07,16,00,33,17.80
2007,07,16,00,34,17.80
2007,07,16,00,35,17.80
2007,07,16,00,36,17.80
2007,07,16,00,37,17.80
2007,07,16,00,38,17.70
2007,07,16,00,39,17.70
2007,07,16,00,40,17.70
2007,07,16,00,41,17.70
2007,07,16,00,42,17.70
2007,07,16,00,43,17.70
2007,07,16,00,44,17.70
2007,07,16,00,45,17.70
2007,07,16,00,46,17.70
2007,07,16,00,47,17.60
2007,07,16,00,48,17.60
2007,07,16,00,49,17.60
2007,07,16,00,50,17.60
2007,07,16,00,51,17.60
2007,07,16,00,52,17.50
2007,07,16,00,53,17.50
2007,07,16,00,54,17.50
2007,07,16,00,55,17.50
2007,07,16,00,56,17.40
2007,07,16,00,57,17.40
2007,07,16,00,58,17.40
2007,07,16,00,59,17.40
2007,07,16,01,00,17.40
2007,07,16,01,01,17.30
2007,07,16,01,02,17.30
2007,07,16,01,03,17.30
2007,07,16,01,04,17.30
2007,07,16,01,05,17.30
2007,07,16,01,06,17.30
2007,07,16,01,07,17.30
2007,07,16,01,08,17.30
2007,07,16,01,09,17.30
2007,07,16,01,10,17.30
2007,07,16,01,11,17.30
2007,07,16,01,12,17.30
2007,07,16,01,13,17.30
2007,07,16,01,14,17.30
2007,07,16,01,15,17.30
2007,07,16,01,16,17.30
2007,07,16,01,17,17.30
2007,07,16,01,18,17.30
2007,07,16,01,19,17.30
2007,07,16,01,20,17.30
2007,07,16,01,21,17.30
2007,07,16,01,22,17.30
2007,07,16,01,23,17.30
2007,07,16,01,24,17.30
2007,07,16,01,25,17.30
2007,07,16,01,26,17.30
2007,07,16,01,27,17.30
2007,07,16,01,28,17.30
2007,07,16,01,29,17.30
2007,07,16,01,30,17.30
2007,07,16,01,31,17.30
2007,07,16,01,32,17.30
2007,07,16,01,33,17.30
2007,07,16,01,34,17.30
2007,07,16,01,35,17.30
2007,07,16,01,36,17.30
2007,07,16,01,37,17.30
2007,07,16,01,38,17.30
2007,07,16,01,39,17.20
2007,07,16,01,40,17.20
2007,07,16,01,41,17.20
2007,07,16,01,42,17.20
2007,07,16,01,43,17.20
2007,07,16,01,44,17.20
2007,07,16,01,45,17.20
2007,07,16,01,46,17.20
2007,07,16,01,47,17.20
2007,07,16,01,48,17.20
2007,07,16,01,49,17.30
2007,07,16,01,50,17.30
2007,07,16,01,51,17.30
2007,07,16,01,52,17.30
2007,07,16,01,53,17.30
2007,07,16,01,54,17.30
2007,07,16,01,55,17.20
2007,07,16,01,56,17.20
2007,07,16,01,57,17.20
2007,07,16,01,58,17.20
2007,07,16,01,59,17.20
2007,07,16,02,00,17.10
2007,07,16,02,01,17.10
2007,07,16,02,02,17.10
2007,07,16,02,03,17.10
2007,07,16,02,04,17.00
2007,07,16,02,05,17.00
2007,07,16,02,06,17.00
2007,07,16,02,07,17.00
2007,07,16,02,08,17.00
2007,07,16,02,09,17.00
2007,07,16,02,10,17.00
2007,07,16,02,11,17.00
2007,07,16,02,12,17.00
2007,07,16,02,13,17.00
2007,07,16,02,14,17.00
2007,07,16,02,15,17.00
2007,07,16,02,16,17.00
2007,07,16,02,17,17.00
2007,07,16,02,18,17.00
2007,07,16,02,19,17.00
2007,07,16,02,20,16.90
2007,07,16,02,21,16.90
2007,07,16,02,22,16.90
2007,07,16,02,23,16.90
2007,07,16,02,24,16.90
2007,07,16,02,25,16.90
2007,07,16,02,26,16.90
2007,07,16,02,27,16.80
2007,07,16,02,28,16.80
2007,07,16,02,29,16.80
2007,07,16,02,30,16.80
2007,07,16,02,31,16.70
2007,07,16,02,32,16.70
2007,07,16,02,33,16.70
2007,07,16,02,34,16.70
2007,07,16,02,35,16.70
2007,07,16,02,36,16.70
2007,07,16,02,37,16.70
2007,07,16,02,38,16.60
2007,07,16,02,39,16.60
2007,07,16,02,40,16.60
2007,07,16,02,41,16.60
2007,07,16,02,42,16.50
2007,07,16,02,43,16.40
2007,07,16,02,44,16.40
2007,07,16,02,45,16.40
2007,07,16,02,46,16.40
2007,07,16,02,47,16.40
2007,07,16,02,48,16.40
2007,07,16,02,49,16.40
2007,07,16,02,50,16.30
2007,07,16,02,51,16.30
2007,07,16,02,52,16.30
2007,07,16,02,53,16.30
2007,07,16,02,54,16.30
2007,07,16,02,55,16.20
2007,07,16,02,56,16.20
2007,07,16,02,57,16.20
2007,07,16,02,58,16.20
2007,07,16,02,59,16.10
2007,07,16,03,00,16.10
2007,07,16,03,01,16.10
2007,07,16,03,02,16.10
2007,07,16,03,03,16.10
2007,07,16,03,04,16.00
2007,07,16,03,05,15.90
2007,07,16,03,06,15.90
2007,07,16,03,07,15.90
2007,07,16,03,08,15.90
2007,07,16,03,09,15.90
2007,07,16,03,10,15.90
2007,07,16,03,11,15.90
2007,07,16,03,12,15.90
2007,07,16,03,13,15.90
2007,07,16,03,14,15.90
2007,07,16,03,15,15.90
2007,07,16,03,16,15.90
2007,07,16,03,17,15.90
2007,07,16,03,18,15.90
2007,07,16,03,19,15.90
2007,07,16,03,20,15.90
2007,07,16,03,21,15.90
2007,07,16,03,22,15.90
2007,07,16,03,23,15.90
2007,07,16,03,24,15.90
2007,07,16,03,25,15.90
2007,07,16,03,26,16.00
2007,07,16,03,27,16.10
2007,07,16,03,28,16.10
2007,07,16,03,29,16.10
2007,07,16,03,30,16.10
2007,07,16,03,31,16.10
2007,07,16,03,32,16.10
2007,07,16,03,33,16.10
2007,07,16,03,34,16.10
2007,07,16,03,35,16.10
2007,07,16,03,36,16.10
2007,07,16,03,37,16.20
2007,07,16,03,38,16.20
2007,07,16,03,39,16.20
2007,07,16,03,40,16.20
2007,07,16,03,41,16.20
2007,07,16,03,42,16.20
2007,07,16,03,43,16.20
2007,07,16,03,44,16.30
2007,07,16,03,45,16.30
2007,07,16,03,46,16.30
2007,07,16,03,47,16.30
2007,07,16,03,48,16.30
2007,07,16,03,49,16.30
2007,07,16,03,50,16.40
2007,07,16,03,51,16.40
2007,07,16,03,52,16.40
2007,07,16,03,53,16.40
2007,07,16,03,54,16.40
2007,07,16,03,55,16.40
2007,07,16,03,56,16.40
2007,07,16,03,57,16.40
2007,07,16,03,58,16.40
2007,07,16,03,59,16.50
2007,07,16,04,00,16.60
2007,07,16,04,01,16.60
2007,07,16,04,02,16.60
2007,07,16,04,03,16.60
2007,07,16,04,04,16.60
2007,07,16,04,05,16.60
2007,07,16,04,06,16.60
2007,07,16,04,07,16.60
2007,07,16,04,08,16.60
2007,07,16,04,09,16.60
2007,07,16,04,10,16.60
2007,07,16,04,11,16.60
2007,07,16,04,12,16.60
2007,07,16,04,13,16.60
2007,07,16,04,14,16.70
2007,07,16,04,15,16.70
2007,07,16,04,16,16.70
2007,07,16,04,17,16.70
2007,07,16,04,18,16.70
2007,07,16,04,19,16.70
2007,07,16,04,20,16.70
2007,07,16,04,21,16.70
2007,07,16,04,22,16.70
2007,07,16,04,23,16.70
2007,07,16,04,24,16.70
2007,07,16,04,25,16.70
2007,07,16,04,26,16.70
2007,07,16,04,27,16.70
2007,07,16,04,28,16.70
2007,07,16,04,29,16.70
2007,07,16,04,30,16.70
2007,07,16,04,31,16.70
2007,07,16,04,32,16.70
2007,07,16,04,33,16.70
2007,07,16,04,34,16.70
2007,07,16,04,35,16.70
2007,07,16,04,36,16.70
2007,07,16,04,37,16.70
2007,07,16,04,38,16.70
2007,07,16,04,39,16.70
2007,07,16,04,40,16.70
2007,07,16,04,41,16.70
2007,07,16,04,42,16.70
2007,07,16,04,43,16.70
2007,07,16,04,44,16.70
2007,07,16,04,45,16.70
2007,07,16,04,46,16.70
2007,07,16,04,47,16.70
2007,07,16,04,48,16.70
2007,07,16,04,49,16.70
2007,07,16,04,50,16.70
2007,07,16,04,51,16.70
2007,07,16,04,52,16.70
2007,07,16,04,53,16.80
2007,07,16,04,54,16.80
2007,07,16,04,55,16.80
2007,07,16,04,56,16.90
2007,07,16,04,57,16.90
2007,07,16,04,58,16.90
2007,07,16,04,59,17.00
2007,07,16,05,00,17.00
2007,07,16,05,01,17.00
2007,07,16,05,02,17.10
2007,07,16,05,03,17.10
2007,07,16,05,04,17.10
2007,07,16,05,05,17.20
2007,07,16,05,06,17.20
2007,07,16,05,07,17.20
2007,07,16,05,08,17.20
2007,07,16,05,09,17.20
2007,07,16,05,10,17.20
2007,07,16,05,11,17.20
2007,07,16,05,12,17.20
2007,07,16,05,13,17.30
2007,07,16,05,14,17.30
2007,07,16,05,15,17.30
2007,07,16,05,16,17.30
2007,07,16,05,17,17.30
2007,07,16,05,18,17.30
2007,07,16,05,19,17.30
2007,07,16,05,20,17.30
2007,07,16,05,21,17.30
2007,07,16,05,22,17.30
2007,07,16,05,23,17.30
2007,07,16,05,24,17.30
2007,07,16,05,25,17.30
2007,07,16,05,26,17.30
2007,07,16,05,27,17.30
2007,07,16,05,28,17.30
2007,07,16,05,29,17.30
2007,07,16,05,30,17.30
2007,07,16,05,31,17.30
2007,07,16,05,32,17.30
2007,07,16,05,33,17.30
2007,07,16,05,34,17.30
2007,07,16,05,35,17.30
2007,07,16,05,36,17.30
2007,07,16,05,37,17.30
2007,07,16,05,38,17.30
2007,07,16,05,39,17.30
2007,07,16,05,40,17.30
2007,07,16,05,41,17.30
2007,07,16,05,42,17.30
2007,07,16,05,43,17.30
2007,07,16,05,44,17.30
2007,07,16,05,45,17.30
2007,07,16,05,46,17.30
2007,07,16,05,47,17.30
2007,07,16,05,48,17.30
2007,07,16,05,49,17.30
2007,07,16,05,50,17.30
2007,07,16,05,51,17.30
2007,07,16,05,52,17.30
2007,07,16,05,53,17.30
2007,07,16,05,54,17.30
2007,07,16,05,55,17.30
2007,07,16,05,56,17.30
2007,07,16,05,57,17.30
2007,07,16,05,58,17.30
2007,07,16,05,59,17.30
2007,07,16,06,00,17.30
2007,07,16,06,01,17.30
2007,07,16,06,02,17.30
2007,07,16,06,03,17.30
2007,07,16,06,04,17.30
2007,07,16,06,05,17.30
2007,07,16,06,06,17.30
2007,07,16,06,07,17.30
2007,07,16,06,08,17.30
2007,07,16,06,09,17.30
2007,07,16,06,10,17.30
2007,07,16,06,11,17.30
2007,07,16,06,12,17.30
2007,07,16,06,13,17.30
2007,07,16,06,14,17.30
2007,07,16,06,15,17.30
2007,07,16,06,16,17.30
2007,07,16,06,17,17.30
2007,07,16,06,18,17.20
2007,07,16,06,19,17.20
2007,07,16,06,20,17.30
2007,07,16,06,21,17.30
2007,07,16,06,22,17.30
2007,07,16,06,23,17.30
2007,07,16,06,24,17.30
2007,07,16,06,25,17.30
2007,07,16,06,26,17.30
2007,07,16,06,27,17.30
2007,07,16,06,28,17.30
2007,07,16,06,29,17.30
2007,07,16,06,30,17.20
2007,07,16,06,31,17.20
2007,07,16,06,32,17.20
2007,07,16,06,33,17.20
2007,07,16,06,34,17.20
2007,07,16,06,35,17.20
2007,07,16,06,36,17.30
2007,07,16,06,37,17.30
2007,07,16,06,38,17.30
2007,07,16,06,39,17.30
2007,07,16,06,40,17.30
2007,07,16,06,41,17.30
2007,07,16,06,42,17.30
2007,07,16,06,43,17.30
2007,07,16,06,44,17.30
2007,07,16,06,45,17.30
2007,07,16,06,46,17.30
2007,07,16,06,47,17.30
2007,07,16,06,48,17.30
2007,07,16,06,49,17.30
2007,07,16,06,50,17.30
2007,07,16,06,51,17.30
2007,07,16,06,52,17.30
2007,07,16,06,53,17.30
2007,07,16,06,54,17.30
2007,07,16,06,55,17.30
2007,07,16,06,56,17.30
2007,07,16,06,57,17.30
2007,07,16,06,58,17.30
2007,07,16,06,59,17.30
2007,07,16,07,00,17.30
2007,07,16,07,01,17.30
2007,07,16,07,02,17.40
2007,07,16,07,03,17.40
2007,07,16,07,04,17.40
2007,07,16,07,05,17.40
2007,07,16,07,06,17.40
2007,07,16,07,07,17.40
2007,07,16,07,08,17.50
2007,07,16,07,09,17.50
2007,07,16,07,10,17.50
2007,07,16,07,11,17.60
2007,07,16,07,12,17.60
2007,07,16,07,13,17.60
2007,07,16,07,14,17.60
2007,07,16,07,15,17.70
2007,07,16,07,16,17.70
2007,07,16,07,17,17.70
2007,07,16,07,18,17.70
2007,07,16,07,19,17.80
2007,07,16,07,20,17.80
2007,07,16,07,21,17.80
2007,07,16,07,22,17.80
2007,07,16,07,23,17.90
2007,07,16,07,24,17.90
2007,07,16,07,25,17.90
2007,07,16,07,26,17.90
2007,07,16,07,27,17.90
2007,07,16,07,28,17.90
2007,07,16,07,29,17.90
2007,07,16,07,30,17.90
2007,07,16,07,31,17.90
2007,07,16,07,32,17.90
2007,07,16,07,33,17.90
2007,07,16,07,34,17.90
2007,07,16,07,35,17.90
2007,07,16,07,36,17.90
2007,07,16,07,37,17.90
2007,07,16,07,38,18.00
2007,07,16,07,39,18.10
2007,07,16,07,40,18.10
2007,07,16,07,41,18.10
2007,07,16,07,42,18.10
2007,07,16,07,43,18.10
2007,07,16,07,44,18.10
2007,07,16,07,45,18.10
2007,07,16,07,46,18.20
2007,07,16,07,47,18.20
2007,07,16,07,48,18.20
2007,07,16,07,49,18.20
2007,07,16,07,50,18.20
2007,07,16,07,51,18.30
2007,07,16,07,52,18.30
2007,07,16,07,53,18.30
2007,07,16,07,54,18.30
2007,07,16,07,55,18.40
2007,07,16,07,56,18.40
2007,07,16,07,57,18.50
2007,07,16,07,58,18.50
2007,07,16,07,59,18.50
2007,07,16,08,00,18.50
2007,07,16,08,01,18.70
2007,07,16,08,02,18.80
2007,07,16,08,03,18.80
2007,07,16,08,04,18.90
2007,07,16,08,05,18.90
2007,07,16,08,06,19.10
2007,07,16,08,07,19.10
2007,07,16,08,08,19.10
2007,07,16,08,09,19.20
2007,07,16,08,10,19.20
2007,07,16,08,11,19.30
2007,07,16,08,12,19.30
2007,07,16,08,13,19.30
2007,07,16,08,14,19.40
2007,07,16,08,15,19.40
2007,07,16,08,16,19.40
2007,07,16,08,17,19.40
2007,07,16,08,18,19.40
2007,07,16,08,19,19.40
2007,07,16,08,20,19.30
2007,07,16,08,21,19.30
2007,07,16,08,22,19.30
2007,07,16,08,23,19.30
2007,07,16,08,24,19.30
2007,07,16,08,25,19.40
2007,07,16,08,26,19.40
2007,07,16,08,27,19.40
2007,07,16,08,28,19.50
2007,07,16,08,29,19.50
2007,07,16,08,30,19.50
2007,07,16,08,31,19.60
2007,07,16,08,32,19.60
2007,07,16,08,33,19.70
2007,07,16,08,34,19.60
2007,07,16,08,35,19.60
2007,07,16,08,36,19.70
2007,07,16,08,37,19.60
2007,07,16,08,38,19.60
2007,07,16,08,39,19.50
2007,07,16,08,40,19.50
2007,07,16,08,41,19.50
2007,07,16,08,42,19.50
2007,07,16,08,43,19.40
2007,07,16,08,44,19.40
2007,07,16,08,45,19.40
2007,07,16,08,46,19.30
2007,07,16,08,47,19.40
2007,07,16,08,48,19.40
2007,07,16,08,49,19.40
2007,07,16,08,50,19.30
2007,07,16,08,51,19.30
2007,07,16,08,52,19.30
2007,07,16,08,53,19.20
2007,07,16,08,54,19.20
2007,07,16,08,55,19.20
2007,07,16,08,56,19.20
2007,07,16,08,57,19.10
2007,07,16,08,58,19.10
2007,07,16,08,59,19.10
2007,07,16,09,00,19.20
2007,07,16,09,01,19.30
2007,07,16,09,02,19.40
2007,07,16,09,03,19.40
2007,07,16,09,04,19.50
2007,07,16,09,05,19.60
2007,07,16,09,06,19.60
2007,07,16,09,07,19.70
2007,07,16,09,08,19.80
2007,07,16,09,09,19.80
2007,07,16,09,10,19.80
2007,07,16,09,11,19.80
2007,07,16,09,12,19.80
2007,07,16,09,13,19.80
2007,07,16,09,14,19.70
2007,07,16,09,15,19.70
2007,07,16,09,16,19.70
2007,07,16,09,17,19.70
2007,07,16,09,18,19.80
2007,07,16,09,19,19.90
2007,07,16,09,20,19.90
2007,07,16,09,21,20.00
2007,07,16,09,22,20.10
2007,07,16,09,23,20.10
2007,07,16,09,24,20.20
2007,07,16,09,25,20.20
2007,07,16,09,26,20.20
2007,07,16,09,27,20.20
2007,07,16,09,28,20.20
2007,07,16,09,29,20.20
2007,07,16,09,30,20.20
2007,07,16,09,31,20.20
2007,07,16,09,32,20.30
2007,07,16,09,33,20.40
2007,07,16,09,34,20.50
2007,07,16,09,35,20.60
2007,07,16,09,36,20.60
2007,07,16,09,37,20.80
2007,07,16,09,38,20.80
2007,07,16,09,39,20.70
2007,07,16,09,40,20.70
2007,07,16,09,41,20.70
2007,07,16,09,42,20.80
2007,07,16,09,43,20.80
2007,07,16,09,44,20.90
2007,07,16,09,45,20.90
2007,07,16,09,46,21.00
2007,07,16,09,47,21.10
2007,07,16,09,48,21.10
2007,07,16,09,49,21.10
2007,07,16,09,50,21.10
2007,07,16,09,51,21.20
2007,07,16,09,52,21.30
2007,07,16,09,53,21.20
2007,07,16,09,54,21.10
2007,07,16,09,55,21.00
2007,07,16,09,56,20.90
2007,07,16,09,57,20.90
2007,07,16,09,58,20.90
2007,07,16,09,59,21.00
2007,07,16,10,00,21.10
2007,07,16,10,01,21.20
2007,07,16,10,02,21.30
2007,07,16,10,03,21.30
2007,07,16,10,04,21.40
2007,07,16,10,05,21.40
2007,07,16,10,06,21.40
2007,07,16,10,07,21.50
2007,07,16,10,08,21.60
2007,07,16,10,09,21.50
2007,07,16,10,10,21.40
2007,07,16,10,11,21.30
2007,07,16,10,12,21.30
2007,07,16,10,13,21.20
2007,07,16,10,14,21.30
2007,07,16,10,15,21.30
2007,07,16,10,16,21.30
2007,07,16,10,17,21.40
2007,07,16,10,18,21.60
2007,07,16,10,19,21.60
2007,07,16,10,20,21.60
2007,07,16,10,21,21.60
2007,07,16,10,22,21.60
2007,07,16,10,23,21.40
2007,07,16,10,24,21.30
2007,07,16,10,25,21.30
2007,07,16,10,26,21.30
2007,07,16,10,27,21.60
2007,07,16,10,28,21.70
2007,07,16,10,29,21.80
2007,07,16,10,30,21.90
2007,07,16,10,31,22.00
2007,07,16,10,32,22.10
2007,07,16,10,33,22.20
2007,07,16,10,34,22.20
2007,07,16,10,35,22.20
2007,07,16,10,36,22.10
2007,07,16,10,37,22.00
2007,07,16,10,38,22.00
2007,07,16,10,39,22.00
2007,07,16,10,40,22.10
2007,07,16,10,41,22.20
2007,07,16,10,42,22.10
2007,07,16,10,43,22.10
2007,07,16,10,44,22.10
2007,07,16,10,45,22.00
2007,07,16,10,46,21.90
2007,07,16,10,47,21.80
2007,07,16,10,48,21.70
2007,07,16,10,49,21.60
2007,07,16,10,50,21.60
2007,07,16,10,51,21.70
2007,07,16,10,52,21.80
2007,07,16,10,53,21.80
2007,07,16,10,54,21.80
2007,07,16,10,55,21.80
2007,07,16,10,56,21.90
2007,07,16,10,57,22.00
2007,07,16,10,58,22.10
2007,07,16,10,59,22.10
2007,07,16,11,00,22.00
2007,07,16,11,01,21.90
2007,07,16,11,02,21.80
2007,07,16,11,03,21.80
2007,07,16,11,04,21.70
2007,07,16,11,05,21.80
2007,07,16,11,06,22.00
2007,07,16,11,07,22.10
2007,07,16,11,08,22.30
2007,07,16,11,09,22.20
2007,07,16,11,10,22.00
2007,07,16,11,11,22.00
2007,07,16,11,12,21.90
2007,07,16,11,13,21.70
2007,07,16,11,14,21.50
2007,07,16,11,15,21.30
2007,07,16,11,16,21.30
2007,07,16,11,17,21.30
2007,07,16,11,18,21.30
2007,07,16,11,19,21.30
2007,07,16,11,20,21.10
2007,07,16,11,21,21.00
2007,07,16,11,22,21.00
2007,07,16,11,23,21.10
2007,07,16,11,24,21.10
2007,07,16,11,25,21.10
2007,07,16,11,26,21.20
2007,07,16,11,27,21.20
2007,07,16,11,28,21.20
2007,07,16,11,29,21.20
2007,07,16,11,30,21.20
2007,07,16,11,31,21.20
2007,07,16,11,32,21.10
2007,07,16,11,33,21.10
2007,07,16,11,34,21.10
2007,07,16,11,35,21.10
2007,07,16,11,36,21.30
2007,07,16,11,37,21.30
2007,07,16,11,38,21.30
2007,07,16,11,39,21.40
2007,07,16,11,40,21.50
2007,07,16,11,41,21.60
2007,07,16,11,42,21.60
2007,07,16,11,43,21.50
2007,07,16,11,44,21.40
2007,07,16,11,45,21.60
2007,07,16,11,46,21.80
2007,07,16,11,47,21.80
2007,07,16,11,48,21.80
2007,07,16,11,49,21.80
2007,07,16,11,50,21.90
2007,07,16,11,51,21.70
2007,07,16,11,52,21.40
2007,07,16,11,53,21.20
2007,07,16,11,54,21.10
2007,07,16,11,55,21.10
2007,07,16,11,56,21.20
2007,07,16,11,57,21.20
2007,07,16,11,58,21.20
2007,07,16,11,59,21.30
2007,07,16,12,00,21.40
2007,07,16,12,01,21.50
2007,07,16,12,02,21.30
2007,07,16,12,03,21.30
2007,07,16,12,04,21.20
2007,07,16,12,05,21.30
2007,07,16,12,06,21.30
2007,07,16,12,07,21.50
2007,07,16,12,08,21.60
2007,07,16,12,09,21.80
2007,07,16,12,10,21.90
2007,07,16,12,11,21.90
2007,07,16,12,12,21.70
2007,07,16,12,13,21.60
2007,07,16,12,14,21.60
2007,07,16,12,15,21.60
2007,07,16,12,16,21.60
2007,07,16,12,17,21.60
2007,07,16,12,18,21.60
2007,07,16,12,19,21.60
2007,07,16,12,20,21.50
2007,07,16,12,21,21.40
2007,07,16,12,22,21.20
2007,07,16,12,23,21.00
2007,07,16,12,24,21.00
2007,07,16,12,25,21.00
2007,07,16,12,26,20.90
2007,07,16,12,27,21.00
2007,07,16,12,28,21.10
2007,07,16,12,29,21.20
2007,07,16,12,30,21.30
2007,07,16,12,31,21.20
2007,07,16,12,32,21.30
2007,07,16,12,33,21.30
2007,07,16,12,34,21.30
2007,07,16,12,35,21.30
2007,07,16,12,36,21.30
2007,07,16,12,37,21.20
2007,07,16,12,38,21.20
2007,07,16,12,39,21.10
2007,07,16,12,40,21.10
2007,07,16,12,41,21.10
2007,07,16,12,42,21.20
2007,07,16,12,43,21.20
2007,07,16,12,44,21.30
2007,07,16,12,45,21.50
2007,07,16,12,46,21.70
2007,07,16,12,47,21.90
2007,07,16,12,48,22.10
2007,07,16,12,49,22.10
2007,07,16,12,50,22.10
2007,07,16,12,51,22.00
2007,07,16,12,52,21.80
2007,07,16,12,53,21.70
2007,07,16,12,54,21.60
2007,07,16,12,55,21.60
2007,07,16,12,56,21.70
2007,07,16,12,57,21.70
2007,07,16,12,58,21.70
2007,07,16,12,59,21.60
2007,07,16,13,00,21.70
2007,07,16,13,01,21.60
2007,07,16,13,02,21.50
2007,07,16,13,03,21.30
2007,07,16,13,04,21.30
2007,07,16,13,05,21.40
2007,07,16,13,06,21.60
2007,07,16,13,07,21.80
2007,07,16,13,08,21.90
2007,07,16,13,09,21.90
2007,07,16,13,10,21.70
2007,07,16,13,11,21.70
2007,07,16,13,12,21.70
2007,07,16,13,13,21.70
2007,07,16,13,14,21.80
2007,07,16,13,15,21.80
2007,07,16,13,16,21.70
2007,07,16,13,17,21.70
2007,07,16,13,18,22.00
2007,07,16,13,19,22.20
2007,07,16,13,20,22.40
2007,07,16,13,21,22.50
2007,07,16,13,22,22.30
2007,07,16,13,23,22.20
2007,07,16,13,24,22.10
2007,07,16,13,25,21.80
2007,07,16,13,26,21.60
2007,07,16,13,27,21.60
2007,07,16,13,28,21.60
2007,07,16,13,29,21.70
2007,07,16,13,30,21.60
2007,07,16,13,31,21.70
2007,07,16,13,32,21.70
2007,07,16,13,33,21.70
2007,07,16,13,34,21.80
2007,07,16,13,35,21.90
2007,07,16,13,36,21.90
2007,07,16,13,37,21.90
2007,07,16,13,38,21.90
2007,07,16,13,39,22.00
2007,07,16,13,40,21.80
2007,07,16,13,41,21.70
2007,07,16,13,42,21.60
2007,07,16,13,43,21.60
2007,07,16,13,44,21.60
2007,07,16,13,45,21.50
2007,07,16,13,46,21.30
2007,07,16,13,47,21.30
2007,07,16,13,48,21.60
2007,07,16,13,49,21.80
2007,07,16,13,50,22.00
2007,07,16,13,51,22.20
2007,07,16,13,52,22.30
2007,07,16,13,53,22.20
2007,07,16,13,54,21.70
2007,07,16,13,55,21.40
2007,07,16,13,56,21.30
2007,07,16,13,57,21.30
2007,07,16,13,58,21.40
2007,07,16,13,59,21.60
2007,07,16,14,00,21.60
2007,07,16,14,01,21.60
2007,07,16,14,02,21.60
2007,07,16,14,03,21.60
2007,07,16,14,04,21.80
2007,07,16,14,05,21.80
2007,07,16,14,06,21.90
2007,07,16,14,07,22.00
2007,07,16,14,08,22.00
2007,07,16,14,09,22.00
2007,07,16,14,10,22.00
2007,07,16,14,11,21.90
2007,07,16,14,12,21.80
2007,07,16,14,13,21.80
2007,07,16,14,14,21.70
2007,07,16,14,15,21.60
2007,07,16,14,16,21.60
2007,07,16,14,17,21.60
2007,07,16,14,18,21.60
2007,07,16,14,19,21.60
2007,07,16,14,20,21.70
2007,07,16,14,21,21.90
2007,07,16,14,22,21.90
2007,07,16,14,23,21.90
2007,07,16,14,24,22.00
2007,07,16,14,25,22.00
2007,07,16,14,26,22.10
2007,07,16,14,27,22.40
2007,07,16,14,28,22.40
2007,07,16,14,29,22.60
2007,07,16,14,30,22.40
2007,07,16,14,31,22.30
2007,07,16,14,32,22.30
2007,07,16,14,33,22.20
2007,07,16,14,34,21.90
2007,07,16,14,35,21.70
2007,07,16,14,36,21.80
2007,07,16,14,37,21.90
2007,07,16,14,38,22.00
2007,07,16,14,39,22.00
2007,07,16,14,40,22.10
2007,07,16,14,41,22.20
2007,07,16,14,42,22.20
2007,07,16,14,43,22.20
2007,07,16,14,44,22.30
2007,07,16,14,45,22.40
2007,07,16,14,46,22.40
2007,07,16,14,47,22.50
2007,07,16,14,48,22.40
2007,07,16,14,49,22.40
2007,07,16,14,50,22.50
2007,07,16,14,51,22.60
2007,07,16,14,52,22.70
2007,07,16,14,53,22.90
2007,07,16,14,54,22.90
2007,07,16,14,55,22.90
2007,07,16,14,56,22.90
2007,07,16,14,57,23.00
2007,07,16,14,58,23.10
2007,07,16,14,59,23.10
2007,07,16,15,00,23.20
2007,07,16,15,01,23.30
2007,07,16,15,02,23.30
2007,07,16,15,03,23.20
2007,07,16,15,04,23.20
2007,07,16,15,05,23.20
2007,07,16,15,06,23.30
2007,07,16,15,07,23.30
2007,07,16,15,08,23.30
2007,07,16,15,09,23.40
2007,07,16,15,10,23.50
2007,07,16,15,11,23.50
2007,07,16,15,12,23.40
2007,07,16,15,13,23.50
2007,07,16,15,14,23.60
2007,07,16,15,15,23.60
2007,07,16,15,16,23.60
2007,07,16,15,17,23.60
2007,07,16,15,18,23.40
2007,07,16,15,19,23.40
2007,07,16,15,20,23.30
2007,07,16,15,21,23.20
2007,07,16,15,22,23.10
2007,07,16,15,23,22.90
2007,07,16,15,24,23.00
2007,07,16,15,25,23.10
2007,07,16,15,26,23.20
2007,07,16,15,27,23.30
2007,07,16,15,28,23.50
2007,07,16,15,29,23.70
2007,07,16,15,30,23.60
2007,07,16,15,31,23.40
2007,07,16,15,32,23.40
2007,07,16,15,33,23.40
2007,07,16,15,34,23.60
2007,07,16,15,35,23.70
2007,07,16,15,36,23.70
2007,07,16,15,37,23.70
2007,07,16,15,38,23.70
2007,07,16,15,39,23.70
2007,07,16,15,40,23.70
2007,07,16,15,41,23.80
2007,07,16,15,42,23.80
2007,07,16,15,43,23.80
2007,07,16,15,44,23.90
2007,07,16,15,45,24.00
2007,07,16,15,46,24.10
2007,07,16,15,47,24.20
2007,07,16,15,48,24.30
2007,07,16,15,49,24.30
2007,07,16,15,50,24.40
2007,07,16,15,51,24.30
2007,07,16,15,52,24.20
2007,07,16,15,53,24.10
2007,07,16,15,54,24.10
2007,07,16,15,55,24.10
2007,07,16,15,56,24.20
2007,07,16,15,57,24.00
2007,07,16,15,58,24.10
2007,07,16,15,59,24.00
2007,07,16,16,00,24.10
2007,07,16,16,01,24.10
2007,07,16,16,02,24.10
2007,07,16,16,03,24.00
2007,07,16,16,04,23.90
2007,07,16,16,05,23.80
2007,07,16,16,06,23.80
2007,07,16,16,07,23.90
2007,07,16,16,08,23.80
2007,07,16,16,09,23.80
2007,07,16,16,10,23.70
2007,07,16,16,11,23.70
2007,07,16,16,12,23.70
2007,07,16,16,13,23.70
2007,07,16,16,14,23.70
2007,07,16,16,15,23.50
2007,07,16,16,16,23.30
2007,07,16,16,17,23.10
2007,07,16,16,18,23.10
2007,07,16,16,19,23.20
2007,07,16,16,20,23.40
2007,07,16,16,21,23.60
2007,07,16,16,22,23.70
2007,07,16,16,23,23.80
2007,07,16,16,24,23.80
2007,07,16,16,25,23.80
2007,07,16,16,26,23.70
2007,07,16,16,27,23.70
2007,07,16,16,28,23.70
2007,07,16,16,29,23.70
2007,07,16,16,30,23.70
2007,07,16,16,31,23.70
2007,07,16,16,32,23.80
2007,07,16,16,33,23.90
2007,07,16,16,34,24.00
2007,07,16,16,35,24.10
2007,07,16,16,36,24.10
2007,07,16,16,37,24.10
2007,07,16,16,38,24.20
2007,07,16,16,39,24.30
2007,07,16,16,40,24.30
2007,07,16,16,41,24.40
2007,07,16,16,42,24.40
2007,07,16,16,43,24.20
2007,07,16,16,44,24.10
2007,07,16,16,45,24.00
2007,07,16,16,46,23.90
2007,07,16,16,47,23.90
2007,07,16,16,48,23.80
2007,07,16,16,49,23.80
2007,07,16,16,50,23.80
2007,07,16,16,51,23.60
2007,07,16,16,52,23.40
2007,07,16,16,53,23.40
2007,07,16,16,54,23.40
2007,07,16,16,55,23.30
2007,07,16,16,56,23.40
2007,07,16,16,57,23.40
2007,07,16,16,58,23.30
2007,07,16,16,59,23.30
2007,07,16,17,00,23.50
2007,07,16,17,01,23.60
2007,07,16,17,02,23.70
2007,07,16,17,03,23.80
2007,07,16,17,04,23.90
2007,07,16,17,05,23.90
2007,07,16,17,06,23.90
2007,07,16,17,07,23.80
2007,07,16,17,08,23.70
2007,07,16,17,09,23.70
2007,07,16,17,10,23.80
2007,07,16,17,11,23.80
2007,07,16,17,12,23.90
2007,07,16,17,13,23.80
2007,07,16,17,14,23.80
2007,07,16,17,15,23.80
2007,07,16,17,16,23.80
2007,07,16,17,17,23.80
2007,07,16,17,18,24.00
2007,07,16,17,19,24.00